Change the Weather History Date:

Saturday, January 12, 2013

  Actual Average Record
Temperature  
Mean Temperature 76 °F 64 °F  
Max Temperature 85 °F 74 °F 85 °F (1975)
Min Temperature 67 °F 53 °F 29 °F (1982)
Degree Days  
Heating Degree Days 0 4  
Month to date heating degree days 0 48  
Since 1 July heating degree days 58 141  
Cooling Degree Days 11 3  
Month to date cooling degree days 95 36  
Year to date cooling degree days 95 36  
Growing Degree Days 25 (Base 50)    
Moisture  
Dew Point 65 °F    
Average Humidity 74    
Maximum Humidity 93    
Minimum Humidity 48    
Precipitation  
Precipitation 0.00 in 0.06 in 1.84 in (1979)
Month to date precipitation 0.46 0.76  
Year to date precipitation 0.46 0.76  
Sea Level Pressure  
Sea Level Pressure 30.13 in    
Wind  
Wind Speed 7 mph (ESE)    
Max Wind Speed 15 mph    
Max Gust Speed 18 mph    
Visibility 10 miles    
Events      
T = Trace of Precipitation, MM = Missing Value Source: NWS Daily Summary

Daily Weather History Graph

Daily Weather History Graph

Search for Another Location

Airport or City:

Trip Planner

Search our weather history database for the weather conditions in past years. The results will help you decide how hot, cold, wet, or windy it might be!

Date:

Astronomy

Jan. 12, 2013 Rise Set
Actual Time 7:17 AM EST 5:54 PM EST
Civil Twilight 6:52 AM EST 6:19 PM EST
Nautical Twilight 6:23 AM EST 6:48 PM EST
Astronomical Twilight 5:55 AM EST 7:16 PM EST
Moon 7:44 AM EST (1/12) 7:10 PM EST (1/12)
Length of Visible Light 11h 27m
Length of Day
10h 37m
New Moon, 1% of the Moon is Illuminated
Jan 12
New Moon
Jan 18
First Quarter
Jan 26
Full
Feb 3
Last Quarter
Feb 10
New

Hourly Weather History & Observations

Time (EST) Temp. Heat Index Dew Point Humidity Pressure Visibility Wind Dir Wind Speed Gust Speed Precip Events Conditions
12:53 AM 68.0 °F - 64.9 °F 90% 30.17 in 10.0 mi East 4.6 mph - N/A   Clear
1:53 AM 68.0 °F - 64.9 °F 90% 30.16 in 10.0 mi East 6.9 mph - N/A   Clear
2:53 AM 66.9 °F - 64.9 °F 93% 30.14 in 10.0 mi East 5.8 mph - N/A   Clear
3:53 AM 68.0 °F - 64.9 °F 90% 30.14 in 10.0 mi East 5.8 mph - N/A   Clear
4:53 AM 66.9 °F - 64.9 °F 93% 30.13 in 10.0 mi East 5.8 mph - N/A   Partly Cloudy
5:53 AM 66.9 °F - 64.9 °F 93% 30.14 in 10.0 mi East 5.8 mph - N/A   Clear
6:53 AM 66.9 °F - 64.0 °F 90% 30.15 in 10.0 mi East 5.8 mph - N/A   Clear
7:53 AM 68.0 °F - 64.9 °F 90% 30.17 in 10.0 mi ENE 4.6 mph - N/A   Clear
8:53 AM 72.0 °F - 66.9 °F 84% 30.17 in 10.0 mi East 6.9 mph - N/A   Clear
9:53 AM 75.9 °F - 68.0 °F 76% 30.18 in 10.0 mi ESE 12.7 mph - N/A   Clear
10:53 AM 80.1 °F 82.3 °F 66.9 °F 64% 30.17 in 10.0 mi SE 9.2 mph - N/A   Scattered Clouds
11:53 AM 81.0 °F 82.7 °F 64.9 °F 58% 30.14 in 10.0 mi SE 10.4 mph - N/A   Scattered Clouds
12:53 PM 82.9 °F 84.0 °F 63.0 °F 51% 30.10 in 10.0 mi SE 13.8 mph 18.4 mph N/A   Partly Cloudy
1:53 PM 82.9 °F 84.4 °F 64.0 °F 53% 30.08 in 10.0 mi SE 10.4 mph - N/A   Clear
2:53 PM 84.0 °F 84.5 °F 62.1 °F 47% 30.07 in 10.0 mi SE 9.2 mph - N/A   Clear
3:53 PM 82.9 °F 83.7 °F 62.1 °F 49% 30.07 in 10.0 mi East 9.2 mph - N/A   Partly Cloudy
4:53 PM 82.0 °F 84.1 °F 66.0 °F 58% 30.08 in 10.0 mi Variable 5.8 mph - N/A   Mostly Cloudy
5:53 PM 77.0 °F - 64.9 °F 66% 30.11 in 10.0 mi WSW 4.6 mph - N/A   Clear
6:53 PM 75.9 °F - 64.9 °F 69% 30.12 in 10.0 mi Calm Calm - N/A   Overcast
7:53 PM 75.0 °F - 64.9 °F 71% 30.13 in 10.0 mi Calm Calm - N/A   Overcast
8:53 PM 73.9 °F - 64.9 °F 73% 30.11 in 10.0 mi SE 4.6 mph - N/A   Overcast
9:53 PM 72.0 °F - 64.0 °F 76% 30.11 in 10.0 mi SE 6.9 mph - N/A   Partly Cloudy
10:53 PM 71.1 °F - 64.0 °F 78% 30.10 in 10.0 mi ESE 5.8 mph - N/A   Overcast
11:53 PM 69.1 °F - 64.0 °F 84% 30.11 in 10.0 mi East 4.6 mph - N/A   Clear